Time,TemperatureF,DewpointF,PressureIn,WindDirection,WindDirectionDegrees,WindSpeedMPH,WindSpeedGustMPH,Humidity,HourlyPrecipIn,Conditions,Clouds,dailyrainin,SoftwareType,DateUTC
2013-03-04 00:04:00,14.8,2.2,30.29,NE,45,0.0,0.0,57,0.00,,,0.00,WUHU216HW,2013-03-04 06:04:00,
2013-03-04 00:29:00,14.9,2.7,30.29,NNE,23,0.2,0.2,58,0.00,,,0.00,WUHU216HW,2013-03-04 06:29:00,
2013-03-04 00:34:00,14.9,2.7,30.29,NNE,23,0.2,0.2,58,0.00,,,0.00,WUHU216HW,2013-03-04 06:34:00,
2013-03-04 00:59:00,14.6,2.4,30.29,NE,45,0.9,0.9,58,0.00,,,0.00,WUHU216HW,2013-03-04 06:59:00,
2013-03-04 01:04:00,14.6,2.4,30.29,NE,45,0.9,0.9,58,0.00,,,0.00,WUHU216HW,2013-03-04 07:04:00,
2013-03-04 01:29:00,14.9,3.2,30.30,ENE,68,0.4,0.4,59,0.00,,,0.00,WUHU216HW,2013-03-04 07:29:00,
2013-03-04 01:34:00,14.9,3.2,30.30,ENE,68,0.4,0.4,59,0.00,,,0.00,WUHU216HW,2013-03-04 07:34:00,
2013-03-04 01:59:00,15.3,5.2,30.30,East,90,0.9,0.9,64,0.00,,,0.00,WUHU216HW,2013-03-04 07:59:00,
2013-03-04 02:04:00,15.3,5.2,30.30,East,90,0.9,0.9,64,0.00,,,0.00,WUHU216HW,2013-03-04 08:04:00,
2013-03-04 02:29:00,15.1,5.4,30.30,ENE,68,1.3,1.3,65,0.00,,,0.00,WUHU216HW,2013-03-04 08:29:00,
2013-03-04 02:34:00,15.1,5.4,30.30,ENE,68,1.3,1.3,65,0.00,,,0.00,WUHU216HW,2013-03-04 08:34:00,
2013-03-04 02:59:00,14.8,5.8,30.30,ENE,68,0.9,0.9,67,0.00,,,0.00,WUHU216HW,2013-03-04 08:59:00,
2013-03-04 03:04:00,14.8,5.8,30.30,ENE,68,0.9,0.9,67,0.00,,,0.00,WUHU216HW,2013-03-04 09:04:00,
2013-03-04 03:29:00,14.4,5.4,30.30,East,90,0.4,0.4,67,0.00,,,0.00,WUHU216HW,2013-03-04 09:29:00,
2013-03-04 03:34:00,14.4,5.4,30.30,East,90,0.4,0.4,67,0.00,,,0.00,WUHU216HW,2013-03-04 09:34:00,
2013-03-04 03:59:00,14.0,5.4,30.30,East,90,0.7,0.7,68,0.00,,,0.00,WUHU216HW,2013-03-04 09:59:00,
2013-03-04 04:04:00,14.0,5.4,30.30,East,90,0.7,0.7,68,0.00,,,0.00,WUHU216HW,2013-03-04 10:04:00,
2013-03-04 04:09:00,14.0,5.4,30.30,East,90,0.7,0.7,68,0.00,,,0.00,WUHU216HW,2013-03-04 10:09:00,
2013-03-04 04:30:00,13.3,4.4,30.30,East,90,0.0,0.0,67,0.00,,,0.00,WUHU216HW,2013-03-04 10:30:00,
2013-03-04 04:34:00,13.3,4.4,30.30,East,90,0.0,0.0,67,0.00,,,0.00,WUHU216HW,2013-03-04 10:34:00,
2013-03-04 04:59:00,12.6,3.7,30.30,SE,135,0.0,0.0,67,0.00,,,0.00,WUHU216HW,2013-03-04 10:59:00,
2013-03-04 05:04:00,12.6,3.7,30.30,SE,135,0.0,0.0,67,0.00,,,0.00,WUHU216HW,2013-03-04 11:04:00,
2013-03-04 05:09:00,12.6,3.7,30.30,SE,135,0.0,0.0,67,0.00,,,0.00,WUHU216HW,2013-03-04 11:09:00,
2013-03-04 05:30:00,10.8,1.5,30.31,SE,135,0.0,0.0,66,0.00,,,0.00,WUHU216HW,2013-03-04 11:30:00,
2013-03-04 05:35:00,10.8,1.5,30.31,SE,135,0.0,0.0,66,0.00,,,0.00,WUHU216HW,2013-03-04 11:35:00,
2013-03-04 05:59:00,9.7,1.2,30.31,SW,225,0.0,0.0,68,0.00,,,0.00,WUHU216HW,2013-03-04 11:59:00,
2013-03-04 06:04:00,9.7,1.2,30.31,SW,225,0.0,0.0,68,0.00,,,0.00,WUHU216HW,2013-03-04 12:04:00,
2013-03-04 06:09:00,9.7,1.2,30.31,SW,225,0.0,0.0,68,0.00,,,0.00,WUHU216HW,2013-03-04 12:09:00,
2013-03-04 06:30:00,9.0,0.9,30.31,SW,225,0.0,0.0,69,0.00,,,0.00,WUHU216HW,2013-03-04 12:30:00,
2013-03-04 06:35:00,9.0,0.9,30.31,SW,225,0.0,0.0,69,0.00,,,0.00,WUHU216HW,2013-03-04 12:35:00,
2013-03-04 06:59:00,11.2,4.4,30.31,ENE,68,0.4,0.4,74,0.00,,,0.00,WUHU216HW,2013-03-04 12:59:00,
2013-03-04 07:04:00,11.2,4.4,30.31,ENE,68,0.4,0.4,74,0.00,,,0.00,WUHU216HW,2013-03-04 13:04:00,
2013-03-04 07:09:00,11.2,4.4,30.31,ENE,68,0.4,0.4,74,0.00,,,0.00,WUHU216HW,2013-03-04 13:09:00,
2013-03-04 07:30:00,13.7,6.3,30.32,SSE,158,0.2,0.2,72,0.00,,,0.00,WUHU216HW,2013-03-04 13:30:00,
2013-03-04 07:35:00,13.7,6.3,30.32,SSE,158,0.2,0.2,72,0.00,,,0.00,WUHU216HW,2013-03-04 13:35:00,
2013-03-04 07:59:00,15.1,7.4,30.33,SE,135,0.4,0.4,71,0.00,,,0.00,WUHU216HW,2013-03-04 13:59:00,
2013-03-04 08:04:00,15.1,7.4,30.33,SE,135,0.4,0.4,71,0.00,,,0.00,WUHU216HW,2013-03-04 14:04:00,
2013-03-04 08:09:00,15.1,7.4,30.33,SE,135,0.4,0.4,71,0.00,,,0.00,WUHU216HW,2013-03-04 14:09:00,
2013-03-04 08:30:00,17.3,9.5,30.33,ESE,113,0.0,0.0,71,0.00,,,0.00,WUHU216HW,2013-03-04 14:30:00,
2013-03-04 08:35:00,17.3,9.5,30.33,ESE,113,0.0,0.0,71,0.00,,,0.00,WUHU216HW,2013-03-04 14:35:00,
2013-03-04 08:59:00,19.4,10.4,30.33,ESE,113,1.8,1.8,68,0.00,,,0.00,WUHU216HW,2013-03-04 14:59:00,
2013-03-04 09:04:00,19.4,10.4,30.33,ESE,113,1.8,1.8,68,0.00,,,0.00,WUHU216HW,2013-03-04 15:04:00,
2013-03-04 09:29:00,21.6,10.9,30.32,SE,135,4.7,4.7,63,0.00,,,0.00,WUHU216HW,2013-03-04 15:29:00,
2013-03-04 09:34:00,21.6,10.9,30.32,SE,135,4.7,4.7,63,0.00,,,0.00,WUHU216HW,2013-03-04 15:34:00,
2013-03-04 09:59:00,23.9,11.6,30.32,ESE,113,3.4,3.4,59,0.00,,,0.00,WUHU216HW,2013-03-04 15:59:00,
2013-03-04 10:04:00,23.9,11.6,30.32,ESE,113,3.4,3.4,59,0.00,,,0.00,WUHU216HW,2013-03-04 16:04:00,
2013-03-04 10:29:00,24.7,12.0,30.31,ESE,113,4.9,4.9,58,0.00,,,0.00,WUHU216HW,2013-03-04 16:29:00,
2013-03-04 10:34:00,24.7,12.0,30.31,ESE,113,4.9,4.9,58,0.00,,,0.00,WUHU216HW,2013-03-04 16:34:00,
2013-03-04 10:59:00,26.3,13.9,30.30,SE,135,8.5,8.5,59,0.00,,,0.00,WUHU216HW,2013-03-04 16:59:00,
2013-03-04 11:04:00,26.3,13.9,30.30,SE,135,8.5,8.5,59,0.00,,,0.00,WUHU216HW,2013-03-04 17:04:00,
2013-03-04 11:29:00,28.4,14.8,30.30,SE,135,3.4,3.4,56,0.00,,,0.00,WUHU216HW,2013-03-04 17:29:00,
2013-03-04 11:34:00,28.4,14.8,30.30,SE,135,3.4,3.4,56,0.00,,,0.00,WUHU216HW,2013-03-04 17:34:00,
2013-03-04 11:59:00,30.2,14.3,30.29,SE,135,8.3,8.3,51,0.00,,,0.00,WUHU216HW,2013-03-04 17:59:00,
2013-03-04 12:04:00,30.2,14.3,30.29,SE,135,8.3,8.3,51,0.00,,,0.00,WUHU216HW,2013-03-04 18:04:00,
2013-03-04 12:30:00,31.3,14.9,30.28,East,90,4.7,4.7,50,0.00,,,0.00,WUHU216HW,2013-03-04 18:30:00,
2013-03-04 12:35:00,31.3,14.9,30.28,East,90,4.7,4.7,50,0.00,,,0.00,WUHU216HW,2013-03-04 18:35:00,
2013-03-04 12:59:00,31.3,11.4,30.28,SE,135,10.5,10.5,43,0.00,,,0.00,WUHU216HW,2013-03-04 18:59:00,
2013-03-04 13:04:00,31.3,11.4,30.28,SE,135,10.5,10.5,43,0.00,,,0.00,WUHU216HW,2013-03-04 19:04:00,
2013-03-04 13:30:00,31.9,12.3,30.27,ENE,68,3.1,3.1,44,0.00,,,0.00,WUHU216HW,2013-03-04 19:30:00,
2013-03-04 13:35:00,31.9,12.3,30.27,ENE,68,3.1,3.1,44,0.00,,,0.00,WUHU216HW,2013-03-04 19:35:00,
2013-03-04 13:59:00,32.4,12.2,30.26,ESE,113,5.4,5.4,43,0.00,,,0.00,WUHU216HW,2013-03-04 19:59:00,
2013-03-04 14:04:00,32.4,12.2,30.26,ESE,113,5.1,5.4,43,0.00,,,0.00,WUHU216HW,2013-03-04 20:04:00,
2013-03-04 14:09:00,32.4,12.2,30.26,ESE,113,5.1,5.1,43,0.00,,,0.00,WUHU216HW,2013-03-04 20:09:00,
2013-03-04 14:30:00,33.1,13.4,30.26,SSE,158,11.6,11.6,44,0.00,,,0.00,WUHU216HW,2013-03-04 20:30:00,
2013-03-04 14:35:00,33.1,13.4,30.26,SSE,158,11.6,11.6,44,0.00,,,0.00,WUHU216HW,2013-03-04 20:35:00,
2013-03-04 15:00:00,32.9,13.2,30.25,ESE,113,5.6,5.6,44,0.00,,,0.00,WUHU216HW,2013-03-04 21:00:00,
2013-03-04 15:05:00,32.9,13.2,30.25,ESE,113,5.6,5.6,44,0.00,,,0.00,WUHU216HW,2013-03-04 21:05:00,
2013-03-04 15:30:00,32.9,13.2,30.26,ESE,113,3.4,3.4,44,0.00,,,0.00,WUHU216HW,2013-03-04 21:30:00,
2013-03-04 15:35:00,32.9,13.2,30.26,ESE,113,3.4,3.4,44,0.00,,,0.00,WUHU216HW,2013-03-04 21:35:00,
2013-03-04 16:00:00,32.8,13.2,30.26,East,90,4.7,4.7,44,0.00,,,0.00,WUHU216HW,2013-03-04 22:00:00,
2013-03-04 16:05:00,32.8,13.2,30.26,East,90,4.7,4.7,44,0.00,,,0.00,WUHU216HW,2013-03-04 22:05:00,
2013-03-04 16:30:00,32.8,14.1,30.26,ESE,113,5.4,5.4,46,0.00,,,0.00,WUHU216HW,2013-03-04 22:30:00,
2013-03-04 16:35:00,32.8,14.1,30.26,ESE,113,5.4,5.4,46,0.00,,,0.00,WUHU216HW,2013-03-04 22:35:00,
2013-03-04 17:00:00,32.0,13.5,30.26,SE,135,4.3,4.3,46,0.00,,,0.00,WUHU216HW,2013-03-04 23:00:00,
2013-03-04 17:05:00,32.0,13.5,30.26,SE,135,4.7,4.7,46,0.00,,,0.00,WUHU216HW,2013-03-04 23:05:00,
2013-03-04 17:10:00,32.0,13.5,30.26,SE,135,4.7,4.7,46,0.00,,,0.00,WUHU216HW,2013-03-04 23:10:00,
2013-03-04 17:30:00,31.7,14.1,30.27,ESE,113,4.0,4.0,48,0.00,,,0.00,WUHU216HW,2013-03-04 23:30:00,
2013-03-04 17:35:00,31.7,14.1,30.27,ESE,113,4.0,4.0,48,0.00,,,0.00,WUHU216HW,2013-03-04 23:35:00,
2013-03-04 18:00:00,30.6,13.1,30.27,East,90,3.8,3.8,48,0.00,,,0.00,WUHU216HW,2013-03-05 00:00:00,
2013-03-04 18:05:00,30.6,12.7,30.27,ESE,113,5.6,5.6,47,0.00,,,0.00,WUHU216HW,2013-03-05 00:05:00,
2013-03-04 18:10:00,30.6,12.7,30.27,ESE,113,5.6,5.6,47,0.00,,,0.00,WUHU216HW,2013-03-05 00:10:00,
2013-03-04 18:30:00,29.9,13.1,30.28,ESE,113,2.7,2.7,49,0.00,,,0.00,WUHU216HW,2013-03-05 00:30:00,
2013-03-04 18:35:00,29.9,13.1,30.28,ESE,113,2.7,2.7,49,0.00,,,0.00,WUHU216HW,2013-03-05 00:35:00,
2013-03-04 19:00:00,29.7,13.4,30.28,ESE,113,3.4,3.4,50,0.00,,,0.00,WUHU216HW,2013-03-05 01:00:00,
2013-03-04 19:05:00,29.7,13.4,30.28,ESE,113,2.7,3.4,50,0.00,,,0.00,WUHU216HW,2013-03-05 01:05:00,
2013-03-04 19:10:00,29.7,13.4,30.28,ESE,113,2.7,2.7,50,0.00,,,0.00,WUHU216HW,2013-03-05 01:10:00,
2013-03-04 19:30:00,29.2,12.9,30.29,ESE,113,3.6,3.6,50,0.00,,,0.00,WUHU216HW,2013-03-05 01:30:00,
2013-03-04 19:35:00,29.2,12.9,30.29,ESE,113,3.6,3.6,50,0.00,,,0.00,WUHU216HW,2013-03-05 01:35:00,
2013-03-04 20:00:00,28.8,13.0,30.29,ESE,113,3.8,3.8,51,0.00,,,0.00,WUHU216HW,2013-03-05 02:00:00,
2013-03-04 20:05:00,28.8,13.0,30.29,ESE,113,5.8,5.8,51,0.00,,,0.00,WUHU216HW,2013-03-05 02:05:00,
2013-03-04 20:10:00,28.8,13.0,30.29,ESE,113,5.8,5.8,51,0.00,,,0.00,WUHU216HW,2013-03-05 02:10:00,
2013-03-04 20:30:00,27.9,11.2,30.29,ESE,113,4.7,4.7,49,0.00,,,0.00,WUHU216HW,2013-03-05 02:30:00,
2013-03-04 20:35:00,27.9,11.2,30.29,ESE,113,4.7,4.7,49,0.00,,,0.00,WUHU216HW,2013-03-05 02:35:00,
2013-03-04 21:00:00,27.7,12.0,30.28,ESE,113,4.0,4.0,51,0.00,,,0.00,WUHU216HW,2013-03-05 03:00:00,
2013-03-04 21:05:00,27.7,12.0,30.28,ESE,113,5.6,5.6,51,0.00,,,0.00,WUHU216HW,2013-03-05 03:05:00,
2013-03-04 21:10:00,27.7,12.0,30.28,ESE,113,5.6,5.6,51,0.00,,,0.00,WUHU216HW,2013-03-05 03:10:00,
2013-03-04 21:30:00,27.9,12.5,30.28,ESE,113,3.1,3.1,52,0.00,,,0.00,WUHU216HW,2013-03-05 03:30:00,
2013-03-04 21:35:00,27.9,12.5,30.28,ESE,113,3.1,3.1,52,0.00,,,0.00,WUHU216HW,2013-03-05 03:35:00,
2013-03-04 22:00:00,27.7,12.3,30.28,SE,135,10.5,10.5,52,0.00,,,0.00,WUHU216HW,2013-03-05 04:00:00,
2013-03-04 22:05:00,27.7,12.3,30.28,SE,135,10.5,10.5,52,0.00,,,0.00,WUHU216HW,2013-03-05 04:05:00,
2013-03-04 22:30:00,27.5,13.9,30.29,ESE,113,6.3,6.3,56,0.00,,,0.00,WUHU216HW,2013-03-05 04:30:00,
2013-03-04 22:35:00,27.5,13.9,30.29,ESE,113,6.3,6.3,56,0.00,,,0.00,WUHU216HW,2013-03-05 04:35:00,
2013-03-04 23:00:00,27.2,13.9,30.29,SE,135,7.8,7.8,57,0.00,,,0.00,WUHU216HW,2013-03-05 05:00:00,
2013-03-04 23:05:00,27.2,13.9,30.29,SE,135,7.8,7.8,57,0.00,,,0.00,WUHU216HW,2013-03-05 05:05:00,
2013-03-04 23:30:00,27.0,15.3,30.30,ESE,113,8.7,8.7,61,0.00,,,0.00,WUHU216HW,2013-03-05 05:30:00,
2013-03-04 23:35:00,27.0,15.3,30.30,ESE,113,8.7,8.7,61,0.00,,,0.00,WUHU216HW,2013-03-05 05:35:00,